KRUPKA Weather Reports


time (UTC)temp
F
wind
direction
speed
knots
gust
knots
rain 1hr
in
rain 24hr
in
rain mn
in
humidity
%
barometer
mb
20260507192003 41 17 6.1 9.6 0.00 0.00 0.00 95
20260507191504 41 353 7.8 13.9 0.00 0.00 0.00 95
20260507191003 41 8 9.6 17.4 0.00 0.00 0.00 95
20260507190503 41 1 7.8 13.9 0.00 0.00 0.00 95
20260507190005 41 4 6.1 17.4 0.00 0.00 0.00 95
20260507185503 41 358 7.8 13.9 0.00 0.00 0.00 95
20260507185003 41 350 11.3 15.6 0.00 0.00 0.00 95
20260507184503 41 355 9.6 15.6 0.00 0.00 0.00 95
20260507184003 41 2 9.6 15.6 0.00 0.00 0.00 95
20260507183502 41 350 7.8 17.4 0.00 0.00 0.00 95
20260507183003 41 355 9.6 17.4 0.00 0.00 0.00 95
20260507182503 41 6 7.8 13.9 0.00 0.00 0.00 95
20260507182005 41 355 11.3 19.1 0.00 0.00 0.00 95
20260507181504 41 9 9.6 23.5 0.00 0.00 0.00 95
20260507181002 41 358 11.3 19.1 0.00 0.00 0.00 95
20260507180504 41 3 11.3 15.6 0.00 0.00 0.00 95
20260507180003 41 7 7.8 13.9 0.00 0.00 0.00 95
20260507175503 43 358 7.8 13.9 0.00 0.00 0.00 95
20260507175004 43 11 9.6 17.4 0.00 0.00 0.00 95
20260507174510 43 6 9.6 15.6 0.00 0.00 0.00 95
20260507174003 43 1 9.6 17.4 0.00 0.00 0.00 94
20260507173504 43 1 7.8 17.4 0.00 0.00 0.00 95
20260507173003 43 353 7.8 13.9 0.00 0.00 0.00 95
20260507172503 43 356 9.6 15.6 0.00 0.00 0.00 95
20260507172005 43 13 9.6 15.6 0.00 0.00 0.00 94
20260507171503 43 1 9.6 13.9 0.00 0.00 0.00 94
20260507171003 43 3 6.1 9.6 0.00 0.00 0.00 94
20260507170504 43 354 7.8 13.9 0.00 0.00 0.00 94
20260507170004 43 4 6.1 11.3 0.00 0.00 0.00 94
20260507165504 43 6 6.1 7.8 0.00 0.00 0.00 94
20260507165004 43 16 3.5 7.8 0.00 0.00 0.00 94
20260507164503 43 358 6.1 9.6 0.00 0.00 0.00 95
20260507164004 43 5 7.8 11.3 0.00 0.00 0.00 95
20260507163503 43 358 7.8 11.3 0.00 0.00 0.00 94
20260507163004 43 355 9.6 15.6 0.00 0.00 0.00 95
20260507162504 43 7 7.8 15.6 0.00 0.00 0.00 95
20260507162003 43 353 7.8 13.9 0.00 0.00 0.00 94
20260507161504 43 359 9.6 17.4 0.00 0.00 0.00 95
20260507161004 43 6 11.3 15.6 0.00 0.00 0.00 95
20260507160503 43 6 9.6 11.3 0.00 0.00 0.00 95
20260507160004 43 4 7.8 15.6 0.00 0.00 0.00 95
20260507155503 43 355 9.6 13.9 0.00 0.00 0.00 95
20260507155003 43 2 13.9 19.1 0.00 0.00 0.00 95
20260507154503 43 5 11.3 21.7 0.00 0.00 0.00 95
20260507154003 43 1 11.3 19.1 0.00 0.00 0.00 95
20260507153722 43 14 13.9 19.1 0.00 0.00 0.00 95
20260507153504 43 14 13.9 19.1 0.00 0.00 0.00 95
20260507153008 45 8 9.6 15.6 0.00 0.00 0.00 94
20260507152504 45 1 11.3 17.4 0.00 0.00 0.00 94
20260507152005 45 359 7.8 15.6 0.00 0.00 0.00 94
20260507151504 45 4 9.6 13.9 0.00 0.00 0.00 94
20260507151003 45 9 9.6 19.1 0.00 0.00 0.00 94
20260507150504 45 7 7.8 15.6 0.00 0.00 0.00 94
20260507150004 45 1 9.6 15.6 0.00 0.00 0.00 94
20260507145503 45 9 11.3 19.1 0.00 0.00 0.00 94
20260507145002 45 4 9.6 15.6 0.00 0.00 0.00 94
20260507144504 45 13 9.6 15.6 0.00 0.00 0.00 94
20260507144004 45 5 7.8 13.9 0.00 0.00 0.00 94
20260507143504 45 358 9.6 11.3 0.00 0.00 0.00 94
20260507143003 45 8 9.6 13.9 0.00 0.00 0.00 94
20260507142504 45 354 7.8 13.9 0.00 0.00 0.00 94
20260507142006 45 2 7.8 11.3 0.00 0.00 0.00 94
20260507141504 45 353 7.8 13.9 0.00 0.00 0.00 93
20260507141004 45 354 7.8 15.6 0.00 0.00 0.00 93
20260507140503 45 21 7.8 13.9 0.00 0.00 0.00 94
20260507140003 46 7 9.6 13.9 0.00 0.00 0.00 94
20260507135504 46 357 6.1 9.6 0.00 0.00 0.00 94
20260507135003 46 11 7.8 11.3 0.00 0.00 0.00 93
20260507134503 46 13 6.1 11.3 0.00 0.00 0.00 93
20260507134003 46 16 3.5 6.1 0.00 0.00 0.00 93
20260507133503 46 352 1.7 7.8 0.00 0.00 0.00 93
20260507133003 46 353 6.1 7.8 0.00 0.00 0.00 93
20260507132503 46 23 3.5 7.8 0.00 0.00 0.00 93
20260507132003 46 5 3.5 7.8 0.00 0.00 0.00 93
20260507131504 46 356 3.5 7.8 0.00 0.00 0.00 93
20260507131004 46 2 3.5 6.1 0.00 0.00 0.00 93
20260507130502 46 359 3.5 6.1 0.00 0.00 0.00 93
20260507130004 46 6 3.5 6.1 0.00 0.00 0.00 93
20260507125503 46 14 6.1 6.1 0.00 0.00 0.00 93
20260507125003 46 4 3.5 6.1 0.00 0.00 0.00 93
20260507124503 46 13 6.1 7.8 0.00 0.00 0.00 93
20260507124003 46 8 3.5 6.1 0.00 0.00 0.00 93
20260507123503 46 352 3.5 6.1 0.00 0.00 0.00 93
20260507123004 46 8 1.7 6.1 0.00 0.00 0.00 93
20260507122503 46 5 3.5 6.1 0.00 0.00 0.00 93
20260507122005 46 356 1.7 6.1 0.00 0.00 0.00 93
20260507121504 46 359 3.5 3.5 0.00 0.00 0.00 93
20260507121003 46 347 3.5 6.1 0.00 0.00 0.00 93
20260507120502 46 348 6.1 7.8 0.00 0.00 0.00 93
20260507120003 46 359 3.5 6.1 0.00 0.00 0.00 93
20260507115502 46 3 6.1 7.8 0.00 0.00 0.00 93
20260507115003 45 28 3.5 7.8 0.00 0.00 0.00 93
20260507114503 45 14 6.1 7.8 0.00 0.00 0.00 93
20260507114003 45 3 3.5 7.8 0.00 0.00 0.00 93
20260507113503 46 339 6.1 11.3 0.00 0.00 0.00 92
20260507113004 46 350 6.1 7.8 0.00 0.00 0.00 92
20260507112504 46 351 6.1 7.8 0.00 0.00 0.00 92
20260507112006 46 339 3.5 6.1 0.00 0.00 0.00 93
20260507111504 46 272 3.5 6.1 0.00 0.00 0.00 93
20260507111004 46 261 1.7 1.7 0.00 0.00 0.00 93
20260507110503 46 309 0.0 1.7 0.00 0.00 0.00 92
20260507110003 46 357 3.5 6.1 0.00 0.00 0.00 93
20260507105511 46 332 1.7 3.5 0.00 0.00 0.00 93
20260507105003 46 347 3.5 3.5 0.00 0.00 0.00 93
20260507104504 46 349 3.5 6.1 0.00 0.00 0.00 93
20260507104003 46 2 3.5 6.1 0.00 0.00 0.00 92
20260507103503 46 351 3.5 7.8 0.00 0.00 0.00 92
20260507103003 46 357 3.5 6.1 0.00 0.00 0.00 93
20260507102504 46 359 6.1 7.8 0.00 0.00 0.00 93
20260507102010 46 345 6.1 9.6 0.00 0.00 0.00 92
20260507101503 46 348 6.1 9.6 0.00 0.00 0.00 92
20260507101003 48 347 3.5 6.1 0.00 0.00 0.00 92
20260507100502 48 302 0.0 1.7 0.00 0.00 0.00 92
20260507100004 48 310 0.0 1.7 0.00 0.00 0.00 93
20260507095503 48 270 0.0 1.7 0.00 0.00 0.00 93
20260507095004 48 209 1.7 1.7 0.00 0.00 0.00 93
20260507094004 48 225 0.0 0.0 0.00 0.00 0.00 93
20260507093503 48 235 0.0 1.7 0.00 0.00 0.00 93
20260507093004 48 248 1.7 1.7 0.00 0.00 0.00 93
20260507092504 48 228 1.7 1.7 0.00 0.00 0.00 93
20260507092006 48 266 0.0 1.7 0.00 0.00 0.00 94
20260507091503 48 248 0.0 1.7 0.00 0.00 0.00 94
20260507091003 48 190 1.7 1.7 0.00 0.00 0.00 94
20260507090504 48 178 1.7 3.5 0.00 0.00 0.00 95
20260507090004 48 188 3.5 3.5 0.00 0.00 0.00 95
20260507085502 48 179 1.7 3.5 0.00 0.00 0.00 93
20260507085003 48 155 0.0 1.7 0.00 0.00 0.00 93
20260507084503 48 175 0.0 0.0 0.00 0.00 0.00 92
20260507084004 46 185 0.0 0.0 0.00 0.00 0.00 92
20260507083504 46 210 0.0 0.0 0.00 0.00 0.00 92
20260507083003 48 169 0.0 0.0 0.00 0.00 0.00 92
20260507082504 48 194 0.0 0.0 0.00 0.00 0.00 92
20260507082005 46 194 0.0 0.0 0.00 0.00 0.00 92
20260507081504 48 194 0.0 0.0 0.00 0.00 0.00 92
20260507081003 46 194 0.0 0.0 0.00 0.00 0.00 92
20260507080502 46 168 0.0 0.0 0.00 0.00 0.00 92
20260507080004 46 194 0.0 0.0 0.00 0.00 0.00 92
20260507075503 48 194 0.0 1.7 0.00 0.00 0.00 92
20260507075003 46 175 0.0 0.0 0.00 0.00 0.00 91
20260507074503 48 176 0.0 0.0 0.00 0.00 0.00 91
20260507074004 48 167 0.0 0.0 0.00 0.00 0.00 91
20260507073503 48 108 0.0 0.0 0.00 0.00 0.00 91
20260507073003 50 108 0.0 0.0 0.00 0.00 0.00 91
20260507072503 50 65 0.0 0.0 0.00 0.00 0.00 91
20260507072006 50 21 0.0 0.0 0.00 0.00 0.00 92
20260507071002 48 38 0.0 0.0 0.00 0.00 0.00 91
20260507070503 48 81 0.0 0.0 0.00 0.00 0.00 91
20260507070005 48 92 0.0 0.0 0.00 0.00 0.00 91
20260507065503 48 71 0.0 0.0 0.00 0.00 0.00 91
20260507065004 48 333 0.0 1.7 0.00 0.00 0.00 91
20260507064511 48 342 0.0 1.7 0.00 0.00 0.00 91
20260507064003 48 279 0.0 1.7 0.00 0.00 0.00 91
20260507063508 48 347 0.0 1.7 0.00 0.00 0.00 91
20260507063003 48 352 1.7 3.5 0.00 0.00 0.00 91
20260507062503 48 38 1.7 3.5 0.00 0.00 0.00 91
20260507062005 48 4 0.0 0.0 0.00 0.00 0.00 91
20260507061504 46 358 1.7 3.5 0.00 0.00 0.00 91
20260507061004 46 332 1.7 6.1 0.00 0.00 0.00 91
20260507060503 46 12 1.7 3.5 0.00 0.00 0.00 91
20260507060004 46 349 1.7 6.1 0.00 0.00 0.00 91
20260507055508 46 3 1.7 3.5 0.00 0.00 0.00 91
20260507055004 46 353 3.5 6.1 0.00 0.00 0.00 91
20260507054503 46 13 1.7 6.1 0.00 0.00 0.00 91
20260507054003 46 16 1.7 6.1 0.00 0.00 0.00 91
20260507053504 46 13 3.5 3.5 0.00 0.00 0.00 91
20260507053003 46 26 3.5 6.1 0.00 0.00 0.00 91
20260507052504 46 39 1.7 3.5 0.00 0.00 0.00 91
20260507052005 46 17 1.7 1.7 0.00 0.00 0.00 91
20260507051504 46 13 0.0 1.7 0.00 0.00 0.00 91
20260507051003 46 359 0.0 0.0 0.00 0.00 0.00 90
20260507050503 46 354 0.0 0.0 0.00 0.00 0.00 91
20260507050004 46 355 0.0 1.7 0.00 0.00 0.00 91
20260507045503 46 348 0.0 1.7 0.00 0.00 0.00 91
20260507045004 46 348 1.7 1.7 0.00 0.00 0.00 91
20260507044504 46 356 1.7 3.5 0.00 0.00 0.00 90
20260507044003 46 349 1.7 3.5 0.00 0.00 0.00 91
20260507043504 46 1 0.0 1.7 0.00 0.00 0.00 91
20260507043003 46 22 0.0 1.7 0.00 0.00 0.00 91
20260507042503 46 19 1.7 1.7 0.00 0.00 0.00 91
20260507042003 46 23 1.7 1.7 0.00 0.00 0.00 91
20260507041509 46 24 1.7 1.7 0.00 0.00 0.00 91
20260507041003 46 31 1.7 1.7 0.00 0.00 0.00 90
20260507040504 46 53 1.7 1.7 0.00 0.00 0.00 90
20260507040004 46 60 0.0 0.0 0.00 0.00 0.00 90
20260507035503 46 50 0.0 0.0 0.00 0.00 0.00 90
20260507035004 46 27 0.0 1.7 0.00 0.00 0.00 90
20260507034503 46 33 1.7 1.7 0.00 0.00 0.00 90
20260507034003 46 21 1.7 1.7 0.00 0.00 0.00 90
20260507033504 46 40 1.7 1.7 0.00 0.00 0.00 90
20260507033003 46 55 1.7 1.7 0.00 0.00 0.00 90
20260507032503 46 4 0.0 0.0 0.00 0.00 0.00 90
20260507032006 46 330 0.0 1.7 0.00 0.00 0.00 90
20260507031503 46 341 0.0 1.7 0.00 0.00 0.00 90
20260507031001 46 46 0.0 0.0 0.00 0.00 0.00 90
20260507030503 46 349 1.7 1.7 0.00 0.00 0.00 90
20260507030003 46 29 1.7 1.7 0.00 0.00 0.00 90
20260507025503 46 15 1.7 1.7 0.00 0.00 0.00 89
20260507025003 46 341 1.7 1.7 0.00 0.00 0.00 89
20260507024504 46 261 1.7 1.7 0.00 0.00 0.00 89
20260507024003 46 20 0.0 0.0 0.00 0.00 0.00 89
20260507023503 46 18 1.7 1.7 0.00 0.00 0.00 89
20260507023004 46 359 0.0 0.0 0.00 0.00 0.00 89
20260507022503 46 279 0.0 0.0 0.00 0.00 0.00 89
20260507022004 46 272 0.0 0.0 0.00 0.00 0.00 89
20260507021504 46 274 0.0 0.0 0.00 0.00 0.00 89
20260507021003 46 8 0.0 0.0 0.00 0.00 0.00 89
20260507020503 46 32 0.0 0.0 0.00 0.00 0.00 89
20260507020003 46 317 0.0 0.0 0.00 0.00 0.00 89
20260507015503 46 303 3.5 3.5 0.00 0.00 0.00 89
20260507015004 46 281 1.7 3.5 0.00 0.00 0.00 89
20260507014503 46 292 1.7 1.7 0.00 0.00 0.00 89
20260507014004 46 286 1.7 3.5 0.00 0.00 0.00 89
20260507013503 46 264 1.7 3.5 0.00 0.00 0.00 90
20260507013005 46 305 1.7 3.5 0.00 0.00 0.00 90
20260507012504 46 353 3.5 7.8 0.00 0.00 0.00 90
20260507011503 46 351 6.1 9.6 0.00 0.00 0.00 90
20260507011004 46 353 6.1 9.6 0.00 0.00 0.00 90
20260507010503 46 344 6.1 9.6 0.00 0.00 0.00 89
20260507010004 46 1 3.5 7.8 0.00 0.00 0.00 90
20260507005502 46 357 7.8 11.3 0.00 0.00 0.00 90
20260507005002 46 338 7.8 11.3 0.00 0.00 0.00 90
20260507004504 46 354 6.1 9.6 0.00 0.00 0.00 90
20260507004003 46 1 7.8 11.3 0.00 0.00 0.00 90
20260507003503 46 356 7.8 9.6 0.00 0.00 0.00 90
20260507003003 46 356 6.1 11.3 0.00 0.00 0.00 89
20260507002503 46 348 7.8 11.3 0.00 0.00 0.00 91
20260507002005 46 352 7.8 11.3 0.00 0.00 0.00 89
20260507001504 46 350 7.8 9.6 0.00 0.00 0.00 89
20260507001003 46 6 6.1 11.3 0.00 0.00 0.00 89
20260507000503 46 1 6.1 9.6 0.00 0.00 0.00 89
20260507000004 46 4 7.8 13.9 0.00 0.00 0.00 89
20260506235504 46 355 7.8 11.3 0.00 0.00 0.00 89
20260506235003 46 358 7.8 11.3 0.00 0.00 0.00 89
20260506234503 46 359 7.8 11.3 0.00 0.00 0.00 89
20260506234004 46 2 7.8 13.9 0.00 0.00 0.00 89
20260506233503 46 347 7.8 11.3 0.00 0.00 0.00 89
20260506233003 48 9 6.1 9.6 0.00 0.00 0.00 88
20260506232507 48 355 6.1 11.3 0.00 0.00 0.00 88
20260506232005 48 11 1.7 3.5 0.00 0.00 0.00 89
20260506231503 48 67 0.0 1.7 0.00 0.00 0.00 89
20260506231003 48 134 0.0 1.7 0.00 0.00 0.00 90
20260506230504 50 144 1.7 1.7 0.00 0.00 0.00 92
20260506230003 50 150 1.7 3.5 0.00 0.00 0.00 93
20260506225503 50 163 3.5 6.1 0.00 0.00 0.00 92
20260506225003 50 164 1.7 1.7 0.00 0.00 0.00 90
20260506224503 50 204 0.0 1.7 0.00 0.00 0.00 86
20260506224003 50 220 1.7 1.7 0.00 0.00 0.00 86
20260506223503 50 246 0.0 1.7 0.00 0.00 0.00 85
20260506223003 50 246 1.7 1.7 0.00 0.00 0.00 85
20260506222506 50 234 1.7 1.7 0.00 0.00 0.00 85
20260506222009 50 224 1.7 1.7 0.00 0.00 0.00 85
20260506221504 50 244 1.7 1.7 0.00 0.00 0.00 85
20260506221002 50 254 1.7 1.7 0.00 0.00 0.00 85
20260506220504 50 92 0.0 1.7 0.00 0.00 0.00 84
20260506220004 50 58 0.0 0.0 0.00 0.00 0.00 84
20260506215503 52 357 1.7 3.5 0.00 0.00 0.00 85
20260506215004 52 20 3.5 6.1 0.00 0.00 0.00 85
20260506214503 52 14 1.7 3.5 0.00 0.00 0.00 85
20260506214004 52 33 3.5 9.6 0.00 0.00 0.00 86
20260506213503 52 36 6.1 6.1 0.00 0.00 0.00 85
20260506213004 52 357 3.5 6.1 0.00 0.00 0.00 84
20260506212503 52 29 3.5 6.1 0.00 0.00 0.00 84
20260506212005 52 37 6.1 9.6 0.00 0.00 0.00 85
20260506211504 52 19 7.8 9.6 0.00 0.00 0.00 83
20260506211002 52 14 6.1 11.3 0.00 0.00 0.00 81
20260506210503 52 345 3.5 7.8 0.00 0.00 0.00 81
20260506210003 52 7 6.1 9.6 0.00 0.00 0.00 81
20260506205503 52 16 6.1 7.8 0.00 0.00 0.00 81
20260506205003 52 359 6.1 9.6 0.00 0.00 0.00 80
20260506204504 52 10 3.5 9.6 0.00 0.00 0.00 80
20260506204003 52 18 1.7 3.5 0.00 0.00 0.00 79
20260506203503 52 13 3.5 7.8 0.00 0.00 0.00 79
20260506203004 52 10 3.5 7.8 0.00 0.00 0.00 78
20260506202005 52 7 3.5 6.1 0.00 0.00 0.00 78
20260506201510 52 5 1.7 3.5 0.00 0.00 0.00 78
20260506201002 52 27 1.7 6.1 0.00 0.00 0.00 78
20260506200504 54 20 6.1 9.6 0.00 0.00 0.00 78
20260506200004 54 19 3.5 7.8 0.00 0.00 0.00 79
20260506195502 54 13 3.5 9.6 0.00 0.00 0.00 77
20260506195011 54 3 3.5 7.8 0.00 0.00 0.00 77
20260506194503 54 15 6.1 7.8 0.00 0.00 0.00 76
20260506194003 54 5 3.5 7.8 0.00 0.00 0.00 76
20260506193504 54 34 3.5 9.6 0.00 0.00 0.00 77
20260506193004 54 25 7.8 13.9 0.00 0.00 0.00 77
20260506192503 54 5 7.8 17.4 0.00 0.00 0.00 76